Terminal Aerodrome Forecast
Issued by NWS Omaha/Valley, NE

Home | Current Version | Previous Version | Graphics & Text | Print | Product List | Glossary On
Versions: 1 2 3 4 5 6 7 8 9 10 11 12 13 14 15 16 17 18 19 20 21 22 23 24 25 26 27 28 29 30 31 32 33 34 35 36
000
FTUS43 KOAX 251723
TAFOFK
TAF
KOFK 251723Z 2518/2618 15012KT P6SM SCT250
     FM260300 36012KT P6SM OVC020 PROB30 2609/2612 5SM -SN OVC007=

USA.gov is the U.S. government's official web portal to all federal, state and local government web resources and services.